CAPE
nan nan nan nan nan nan nan nan nan nan nan nan nan nan nan nan nan nan nan nan nan nan nan nan nan nan nan 4 24 24 51 69 85 85 95 98 103 103 104 106 106 104 100 101 101 98 95 99 99 99 98 102 103 103 110 119 119 125 139 150 150 163 159 155 155 149 147 159 172 172 181 184 186 186 204 224 246 246 251 236 236 227 207 199 199 220
nan nan nan nan nan nan nan nan nan nan nan nan nan nan nan nan nan nan nan nan nan nan nan nan nan nan nan nan 1 1 24 50 71 71 84 94 104 104 104 105 105 105 100 100 100 97 95 94 94 98 95 95 95 95 101 106 106 105 110 121 121 133 138 140 140 140 142 143 153 153 157 165 175 175 187 199 210 210 214 220 220 221 229 237 237 239
nan nan nan nan nan nan nan nan nan nan nan nan nan nan nan nan nan nan nan nan nan nan nan nan nan nan nan nan nan nan 3 30 53 53 74 86 98 98 103 102 102 101 101 95 95 92 94 94 94 93 92 91 92 92 95 97 97 99 96 98 98 106 118 125 125 130 134 134 137 137 147 148 157 157 161 168 169 169 162 159 159 183 218 250 250 278
nan nan 0 nan nan nan nan nan nan nan nan nan nan nan nan nan nan nan nan nan nan nan nan nan nan nan nan nan nan nan nan 14 38 38 62 76 88 88 93 97 97 100 95 96 96 97 95 93 93 94 93 93 99 99 101 102 102 96 95 86 86 90 102 112 112 121 123 131 130 130 136 141 139 139 135 129 134 134 136 151 151 168 212 246 246 289
0 0 0 nan nan nan nan nan nan nan nan nan nan nan nan nan nan nan nan nan nan nan nan nan nan nan nan nan nan nan nan 1 24 24 49 70 83 83 93 96 96 95 101 103 103 100 102 98 98 97 96 97 103 103 100 105 105 99 89 87 87 83 88 99 99 108 115 122 129 129 129 131 121 121 114 111 112 112 122 137 137 158 187 230 230 263
1 0 nan nan nan nan nan nan nan nan nan nan nan nan nan nan nan nan nan nan nan nan nan nan nan nan nan nan nan nan nan 8 19 19 47 57 76 76 92 98 98 104 105 107 107 109 104 104 104 102 101 102 102 102 99 98 98 92 88 81 81 74 79 90 90 96 104 114 121 121 128 125 122 122 117 113 108 108 107 121 121 146 158 191 191 245
1 1 0 nan nan nan nan nan nan nan nan nan nan nan nan nan nan nan nan nan nan nan nan nan nan nan nan nan nan nan 1 7 16 16 32 51 70 70 88 95 95 109 111 112 112 113 107 101 101 100 96 93 90 90 88 86 86 78 76 71 71 68 72 84 84 88 97 106 110 110 118 121 121 121 126 119 108 108 103 110 110 130 138 161 161 225
0 nan nan nan nan nan nan nan nan nan nan nan nan nan nan nan nan nan nan nan nan nan nan nan nan nan nan nan nan nan nan nan nan nan nan nan 2 2 14 44 44 64 72 79 79 82 84 82 82 83 80 76 78 78 72 74 74 70 67 62 62 66 68 76 76 78 84 89 92 92 99 107 111 111 119 126 128 128 118 110 110 105 113 134 134 184
nan nan nan nan nan nan nan nan nan nan nan nan nan nan nan nan nan nan nan nan nan nan nan nan nan nan nan nan nan nan nan nan nan nan nan nan nan nan nan 4 4 19 42 50 50 60 65 74 74 77 76 79 77 77 76 75 75 67 65 60 60 60 63 67 67 73 76 79 81 81 91 100 106 106 116 125 132 132 121 103 103 95 100 118 118 169
nan nan nan nan nan nan nan nan nan nan nan nan nan nan nan nan nan nan nan nan nan nan nan nan nan nan nan nan nan nan nan nan 0 0 7 0 6 6 1 3 3 3 26 42 42 56 58 67 67 72 77 81 82 82 77 74 74 68 60 56 56 56 57 61 61 63 67 69 70 70 79 89 98 98 111 120 127 127 125 106 106 89 95 110 110 137
nan nan nan nan nan nan nan nan nan nan nan nan nan nan nan nan nan nan nan nan nan nan nan nan nan nan nan nan nan nan nan nan nan nan nan nan 1 1 6 5 5 12 25 36 36 46 50 58 58 68 72 78 76 76 62 55 55 49 47 43 43 44 51 53 53 58 57 60 65 65 71 79 86 86 103 112 127 127 126 115 115 99 97 109 109 131
nan nan nan nan nan nan nan nan nan nan nan nan nan nan nan nan nan nan nan nan nan nan nan nan nan nan nan nan nan nan nan nan nan nan nan nan nan nan nan nan nan nan nan 4 4 8 22 35 35 39 40 38 47 47 36 19 19 29 30 35 35 36 42 49 49 51 53 54 55 55 63 72 81 81 91 106 124 124 132 129 129 118 115 124 124 133
nan nan nan nan nan nan nan nan nan nan nan nan nan nan nan nan nan nan nan nan nan nan nan nan nan nan nan nan nan nan nan nan nan nan nan nan nan nan nan nan nan nan nan nan nan nan nan nan nan 0 3 1 9 9 11 7 7 11 16 25 25 29 38 41 41 47 51 50 51 51 59 68 77 77 87 102 117 117 132 137 137 129 129 129 129 140
nan nan nan nan nan nan nan nan nan nan nan nan nan nan nan nan nan nan nan nan nan nan nan nan nan nan nan nan nan nan nan nan nan nan nan nan nan nan nan nan nan nan nan nan nan nan nan nan nan nan nan nan nan nan nan 0 0 3 8 13 13 27 36 40 40 47 49 50 50 50 58 68 77 77 86 97 113 113 129 137 137 141 142 145 145 152
nan nan nan nan nan nan nan nan nan nan nan nan nan nan nan nan nan nan nan nan nan nan nan nan nan nan nan nan nan nan nan nan nan nan nan nan nan nan nan nan nan nan nan nan nan nan nan nan nan nan nan nan nan nan nan nan nan nan 2 13 13 27 34 44 44 47 51 51 52 52 60 70 78 78 83 90 105 105 120 135 135 139 153 151 151 160
nan nan nan nan nan nan nan nan nan nan nan nan nan nan nan nan nan nan nan nan nan nan nan nan nan nan nan nan nan nan nan nan nan nan nan nan nan nan nan nan nan nan nan nan nan nan nan nan nan nan nan nan nan nan nan nan nan nan 4 19 19 34 40 45 45 48 51 51 53 53 62 70 79 79 84 90 101 101 112 126 126 134 145 154 154 164
nan nan nan nan nan nan nan nan nan nan nan nan nan nan nan nan nan nan nan nan nan nan nan nan nan nan nan nan nan nan nan nan nan nan nan nan nan nan nan nan nan nan nan nan nan nan nan nan nan nan nan nan nan nan nan nan nan 0 9 24 24 39 45 46 46 47 50 51 57 57 64 70 80 80 86 94 100 100 107 121 121 134 140 147 147 157
nan nan nan nan nan nan nan nan nan nan nan nan nan nan nan nan nan nan nan nan nan nan nan nan nan nan nan nan nan nan nan nan nan nan nan nan nan nan nan nan nan nan nan nan nan nan nan nan nan nan nan nan nan nan nan nan nan 2 16 29 29 45 46 50 50 50 49 53 57 57 58 67 74 74 85 91 99 99 104 121 121 133 139 144 144 142
nan nan nan nan nan nan nan nan nan nan nan nan nan nan nan nan nan nan nan nan nan nan nan nan nan nan nan nan nan nan nan nan nan nan nan nan nan nan nan nan nan nan nan nan nan nan nan nan nan nan nan nan nan nan nan 1 1 5 23 34 34 45 49 50 50 50 50 54 54 54 56 64 70 70 76 87 97 97 102 113 113 130 140 141 141 136
nan nan nan nan nan nan nan nan nan nan nan nan nan nan nan nan nan nan nan nan nan nan nan nan nan nan nan nan nan nan nan nan nan nan nan nan nan nan nan nan nan nan nan nan nan nan nan nan nan nan nan nan nan nan 0 2 2 7 22 35 35 43 44 46 46 47 50 52 54 54 56 61 66 66 71 77 86 86 90 104 104 121 135 145 145 134
1 nan nan nan nan nan nan nan nan nan nan nan nan nan nan nan nan nan nan nan nan nan nan nan nan nan nan nan nan nan nan nan nan nan nan nan nan nan nan nan nan nan nan nan nan nan nan nan nan nan nan nan nan nan 0 3 3 8 18 29 29 37 42 45 45 47 47 51 57 57 60 63 67 67 68 71 74 74 82 86 86 102 118 135 135 132
1 nan nan nan nan nan nan nan nan nan nan nan nan nan nan nan nan nan nan nan nan nan nan nan nan nan nan nan nan nan nan nan nan nan nan nan nan nan nan nan nan nan nan nan nan nan nan nan nan nan nan nan nan nan 0 3 3 8 17 28 28 34 39 42 42 45 51 53 60 60 63 66 67 67 67 68 71 71 71 72 72 81 104 128 128 128
nan nan nan nan nan nan nan nan nan nan nan nan nan nan nan nan nan nan nan nan nan nan nan nan nan nan nan nan nan nan nan nan nan nan nan nan nan nan nan nan nan nan nan nan nan nan nan nan nan nan nan nan nan nan 0 4 4 8 16 26 26 31 36 42 42 45 48 51 59 59 63 65 70 70 69 69 69 69 66 68 68 71 87 110 110 122
nan nan nan nan nan nan nan nan nan nan nan nan nan nan nan nan nan nan nan nan nan nan nan nan nan nan nan nan nan nan nan nan nan nan nan nan nan nan nan nan nan nan nan nan nan nan nan nan nan nan nan nan nan nan 0 3 3 7 14 24 24 28 35 39 39 43 48 52 56 56 59 65 67 67 72 75 74 74 71 67 67 69 77 93 93 102
nan nan nan nan nan nan nan nan nan nan nan nan nan nan nan nan nan nan nan nan nan nan nan nan nan nan nan nan nan nan nan nan nan nan nan nan nan nan nan nan nan nan nan nan nan nan nan nan nan nan nan nan nan nan nan 2 2 5 12 18 18 25 29 36 36 41 47 49 54 54 59 63 66 66 71 74 76 76 73 67 67 67 70 79 79 98
nan nan nan nan nan 2 7 10 11 11 3 nan nan nan nan nan nan nan nan nan nan nan nan nan nan nan nan nan nan nan nan nan nan nan nan nan nan nan nan nan nan nan nan nan nan nan nan nan nan nan nan nan nan nan nan 0 0 3 7 15 15 20 23 33 33 38 45 47 51 51 53 60 65 65 67 73 74 74 74 70 70 65 64 70 70 85
89 67 73 62 62 61 72 85 98 98 123 72 0 0 nan nan nan nan nan nan nan nan nan nan nan nan nan nan nan nan nan nan nan nan nan nan nan nan nan nan nan nan nan nan nan nan nan nan nan nan nan nan nan nan nan nan nan 1 3 8 8 14 19 27 27 35 42 46 49 49 51 56 62 62 64 70 79 79 80 72 72 65 67 59 59 83
142 147 141 148 148 136 136 149 187 187 214 232 223 223 96 2 nan nan nan nan nan nan nan nan nan nan nan nan nan nan nan nan nan nan nan nan nan nan nan nan nan nan nan nan nan nan nan nan nan nan nan nan nan nan nan nan nan nan 1 4 4 7 13 21 21 29 37 44 46 46 49 51 55 55 61 68 78 78 79 79 79 73 67 55 55 49
73 88 120 134 134 148 154 173 195 195 222 234 254 254 137 2 nan nan nan nan nan nan nan nan nan nan nan nan nan nan nan nan nan nan nan nan nan nan nan nan nan nan nan nan nan nan nan nan nan nan nan nan nan nan nan nan nan nan nan 0 0 1 2 9 9 20 31 41 42 42 46 49 51 51 55 63 69 69 81 82 82 76 62 52 52 52
0 12 30 57 57 78 70 39 91 91 149 175 171 171 116 6 nan nan nan nan nan nan nan nan nan nan nan nan nan nan nan nan nan nan nan nan nan nan nan nan nan nan nan nan nan nan nan nan nan nan nan nan nan nan nan nan nan nan nan nan nan nan nan 0 0 9 23 31 38 38 43 45 47 47 51 54 61 61 74 82 82 73 50 49 49 53
nan nan nan nan nan 2 3 nan 1 1 36 104 102 102 53 nan nan nan nan nan nan nan nan nan nan nan nan nan nan nan nan nan nan nan nan nan nan nan nan nan nan nan nan nan nan nan nan nan nan nan nan nan nan nan nan nan nan nan nan nan nan nan nan nan nan 0 11 23 30 30 40 43 44 44 45 48 55 55 68 78 78 76 46 49 49 46
nan nan nan nan nan nan nan nan nan nan nan nan 0 0 3 1 0 0 1 5 5 9 9 3 3 0 nan nan nan nan nan nan nan nan nan nan nan nan nan nan nan nan nan nan nan nan nan nan nan nan nan nan nan nan nan nan nan nan nan nan nan nan nan nan nan nan nan nan 8 8 21 26 34 34 35 38 46 46 56 61 61 81 59 41 41 40
nan nan nan 0 0 2 1 nan nan nan nan nan nan nan nan nan 14 14 8 3 3 12 8 7 7 2 nan nan nan nan nan nan nan nan nan nan nan nan nan nan nan nan nan nan nan nan nan nan nan nan nan nan nan nan nan nan nan nan nan nan nan nan nan nan nan nan nan nan nan nan 3 14 23 23 31 38 43 43 50 62 62 75 81 36 36 38
0 nan nan nan nan nan nan nan nan nan nan nan nan nan 1 0 5 5 10 0 0 0 8 8 8 2 nan nan nan nan nan nan nan nan nan nan nan nan nan nan nan nan nan nan nan nan nan nan nan nan nan nan nan nan nan nan nan nan nan nan nan nan nan nan nan nan nan nan nan nan nan nan 4 4 20 38 46 46 52 57 57 76 86 60 60 36
23 23 12 3 3 1 1 0 nan nan 0 nan 0 0 2 1 nan nan nan nan nan nan 3 8 8 2 nan nan nan nan nan nan nan nan nan nan nan nan nan nan nan nan nan nan nan nan nan nan nan nan nan nan nan nan nan nan nan nan nan nan nan nan nan nan nan nan nan nan nan nan nan nan nan nan 0 34 46 46 52 57 57 70 85 88 88 63
15 15 19 12 12 6 8 9 5 5 nan nan nan nan nan nan nan nan nan nan nan 4 20 19 19 13 4 3 2 2 nan nan nan nan nan nan nan nan nan nan nan nan nan nan nan nan nan nan nan nan nan nan nan nan nan nan nan nan nan nan nan nan nan nan nan nan nan nan nan nan nan nan nan nan nan 38 54 54 55 57 57 62 73 84 84 83
4 4 2 0 0 nan nan nan nan nan nan nan nan nan nan nan nan nan nan nan nan 0 15 34 34 29 29 9 nan nan nan nan nan nan nan nan nan nan nan nan nan nan nan nan nan nan nan nan nan nan nan nan nan nan nan nan nan nan nan nan nan nan nan nan nan nan nan nan nan nan nan nan nan nan nan 35 55 55 64 65 65 58 57 69 69 82
nan nan nan nan nan nan nan nan nan nan nan nan nan nan nan nan nan nan nan nan nan nan nan 1 1 12 5 22 nan nan nan nan nan nan nan nan nan nan nan nan nan nan nan nan nan nan nan nan nan nan nan nan nan nan nan nan nan nan nan nan nan nan nan nan nan nan nan nan nan nan nan nan nan nan nan 5 29 29 42 32 32 37 38 40 40 62
nan nan nan nan nan nan nan nan 1 1 3 10 10 10 13 22 10 10 nan nan nan nan nan 1 1 7 nan nan nan nan nan nan nan nan nan nan nan nan nan nan nan nan nan nan nan nan nan nan nan nan nan nan nan nan nan nan nan nan nan nan nan nan nan nan nan nan nan nan nan nan nan nan nan nan nan nan 20 20 36 27 27 23 21 12 12 26
nan nan nan nan nan nan nan 1 5 5 6 23 29 29 28 17 nan nan nan nan nan nan nan nan nan nan 1 4 6 6 nan nan nan nan nan nan nan nan nan nan nan nan nan nan nan nan nan nan nan nan nan nan nan nan nan nan nan nan nan nan nan nan nan nan nan nan nan nan nan nan nan nan nan nan nan nan 0 0 22 17 17 9 22 8 8 4
nan nan nan nan nan nan nan nan nan nan nan nan nan nan nan nan nan nan nan nan nan nan nan nan nan nan nan 2 1 1 0 nan nan nan nan nan nan nan nan nan nan nan nan nan nan nan nan nan nan nan nan nan nan nan nan nan nan nan nan nan nan nan nan nan nan nan nan nan nan nan nan nan nan nan nan nan nan nan 3 9 9 2 24 4 4 1
nan nan nan nan nan nan nan nan nan nan nan nan nan nan nan nan 3 3 1 nan nan nan nan nan nan nan nan 0 0 0 nan nan nan nan nan nan nan nan nan nan nan nan nan nan nan nan nan nan nan nan nan nan nan nan nan nan nan nan nan nan nan nan nan nan nan nan nan nan nan nan nan nan nan nan nan nan nan nan nan 1 1 14 31 2 2 1
nan nan nan nan nan nan nan nan nan nan nan nan nan nan nan nan 12 12 30 20 20 8 2 0 0 0 nan nan nan nan nan nan nan nan nan nan nan nan nan nan nan nan nan nan nan nan nan nan nan nan nan nan nan nan nan nan nan nan nan nan nan nan nan nan nan nan nan nan nan nan nan nan nan nan nan nan nan nan nan 12 12 35 39 0 0 1
nan nan nan nan nan nan nan nan nan nan nan 9 2 2 nan nan 8 8 19 14 14 18 8 nan nan nan nan nan nan nan nan nan nan nan nan nan nan nan nan nan nan nan nan nan nan nan nan nan nan nan nan nan nan nan nan nan nan nan nan nan nan nan nan nan nan nan nan nan nan nan nan nan nan nan nan nan nan nan nan nan nan nan 16 nan nan 0
nan nan nan nan nan nan nan nan nan nan nan 4 0 0 nan nan 6 6 12 16 16 18 7 nan nan nan nan nan nan nan nan nan nan nan nan 1 3 3 nan nan nan nan nan nan nan nan nan nan nan nan nan nan nan nan nan nan nan nan nan nan nan nan nan nan nan nan nan nan nan nan nan nan nan nan nan nan nan nan nan nan nan nan nan nan nan nan
nan nan nan nan nan nan 1 1 0 0 0 nan nan nan nan nan nan nan 5 19 19 20 13 3 3 0 nan nan nan nan nan nan nan nan nan nan nan nan nan nan nan nan nan nan nan nan nan nan nan nan nan nan nan nan nan nan nan nan nan nan nan nan nan nan nan nan nan nan nan nan nan nan nan nan nan nan nan nan nan nan nan nan nan nan nan nan
0 0 1 2 2 4 7 10 6 6 4 1 nan nan nan nan nan nan nan 8 8 19 24 17 17 7 1 0 nan nan nan nan nan nan nan nan nan nan nan nan nan nan nan nan nan nan nan nan nan nan nan nan nan nan nan nan nan nan nan nan nan nan nan nan nan nan nan nan nan nan nan nan nan nan nan nan nan nan nan nan nan nan nan nan nan nan
18 20 20 19 19 15 13 9 5 5 3 nan nan nan nan nan nan nan nan nan nan 19 41 12 12 1 nan nan nan nan nan nan nan nan nan nan nan nan nan nan nan nan 0 nan nan nan nan nan nan nan nan nan nan nan nan nan nan nan nan nan nan nan nan nan nan nan nan nan nan nan nan nan nan nan nan nan nan nan nan nan nan nan nan nan nan nan
32 31 30 23 23 17 11 1 1 1 0 nan nan nan nan nan 14 14 nan nan nan nan nan nan nan nan nan nan nan nan nan nan nan nan nan nan nan nan nan nan nan nan nan nan nan nan nan nan nan nan nan nan nan nan nan nan nan nan nan nan nan nan nan nan nan nan nan nan nan nan nan nan nan nan nan nan nan nan nan nan nan nan nan nan nan nan
33 26 21 17 17 8 5 0 0 0 nan nan nan nan nan nan nan nan 0 nan nan 0 0 5 5 15 15 10 1 1 nan nan nan nan nan nan nan nan nan nan nan nan nan nan nan nan nan nan nan nan nan nan nan nan nan nan nan nan nan nan nan nan nan nan nan nan nan nan nan nan nan nan nan nan nan nan nan nan nan nan nan nan nan nan nan nan
30 18 11 6 6 9 1 nan nan nan nan nan nan nan nan nan 2 2 3 16 16 23 15 6 6 9 14 17 13 13 4 0 nan nan nan nan nan nan nan nan nan nan nan nan nan nan nan nan nan nan 8 26 1 1 nan nan nan nan nan nan nan nan nan nan nan nan nan nan nan nan nan nan nan nan nan nan nan nan nan nan nan nan nan nan nan nan
CIN
nan nan nan nan nan nan nan nan nan nan nan nan nan nan nan nan nan nan nan nan nan nan nan nan nan nan nan -67 -30 -30 -7 -0 -0 -0 -0 -0 -0 -0 -0 -0 -0 -0 -0 -0 -0 -0 -0 -0 -0 -0 -0 -0 -0 -0 -0 -0 -0 -0 -0 -0 -0 -0 -0 -0 -0 -0 -0 -0 -0 -0 -0 -0 -0 -0 -0 -0 -0 -0 -0 -0 -0 -0 -0 -0 -0 -0
nan nan nan nan nan nan nan nan nan nan nan nan nan nan nan nan nan nan nan nan nan nan nan nan nan nan nan nan -42 -42 -12 -1 -0 -0 -0 -0 -0 -0 -0 -0 -0 -0 -0 -0 -0 -0 -0 -0 -0 -0 -0 -0 -0 -0 -0 -0 -0 -0 -0 -0 -0 -0 -0 -0 -0 -0 -0 -0 -0 -0 -0 -0 -0 -0 -0 -0 -0 -0 -0 -0 -0 -0 -0 -0 -0 -0
nan nan nan nan nan nan nan nan nan nan nan nan nan nan nan nan nan nan nan nan nan nan nan nan nan nan nan nan nan nan -16 -2 -0 -0 -0 -0 -0 -0 -0 -0 -0 -0 -0 -0 -0 -0 -0 -0 -0 -0 -0 -0 -0 -0 -0 -0 -0 -0 -0 -0 -0 -0 -0 -0 -0 -0 -0 -0 -0 -0 -0 -0 -0 -0 -0 -0 -0 -0 -0 -0 -0 -0 -0 -0 -0 -0
nan nan -26 nan nan nan nan nan nan nan nan nan nan nan nan nan nan nan nan nan nan nan nan nan nan nan nan nan nan nan nan -4 -0 -0 -0 -0 -0 -0 -0 -0 -0 -0 -0 -0 -0 -0 -0 -0 -0 -0 -0 -0 -0 -0 -0 -0 -0 -0 -0 -0 -0 -0 -0 -0 -0 -0 -0 -0 -0 -0 -0 -0 -0 -0 -0 -0 -0 -0 -0 -0 -0 -0 -0 -0 -0 -0
-9 -8 -23 nan nan nan nan nan nan nan nan nan nan nan nan nan nan nan nan nan nan nan nan nan nan nan nan nan nan nan nan -0 -0 -0 -0 -0 -0 -0 -0 -0 -0 -0 -0 -0 -0 -0 -0 -0 -0 -0 -0 -0 -0 -0 -0 -0 -0 -0 -0 -0 -0 -0 -0 -0 -0 -0 -0 -0 -0 -0 -0 -0 -0 -0 -0 -0 -0 -0 -0 -0 -0 -0 -0 -0 -0 -0
-7 -8 nan nan nan nan nan nan nan nan nan nan nan nan nan nan nan nan nan nan nan nan nan nan nan nan nan nan nan nan nan -0 -0 -0 -0 -0 -0 -0 -0 -0 -0 -0 -0 -0 -0 -0 -0 -0 -0 -0 -0 -0 -0 -0 -0 -0 -0 -0 -0 -0 -0 -0 -0 -0 -0 -0 -0 -0 -0 -0 -0 -0 -0 -0 -0 -0 -0 -0 -0 -0 -0 -0 -0 -0 -0 -0
-6 -5 -17 nan nan nan nan nan nan nan nan nan nan nan nan nan nan nan nan nan nan nan nan nan nan nan nan nan nan nan -0 -0 -0 -0 -0 -0 -0 -0 -0 -0 -0 -0 -0 -0 -0 -0 -0 -0 -0 -0 -0 -0 -0 -0 -0 -0 -0 -0 -0 -0 -0 -0 -0 -0 -0 -0 -0 -0 -0 -0 -0 -0 -0 -0 -0 -0 -0 -0 -0 -0 -0 -0 -0 -0 -0 -0
-10 nan nan nan nan nan nan nan nan nan nan nan nan nan nan nan nan nan nan nan nan nan nan nan nan nan nan nan nan nan nan nan nan nan nan nan -0 -0 -0 -0 -0 -0 -0 -0 -0 -0 -0 -0 -0 -0 -0 -0 -0 -0 -0 -0 -0 -0 -0 -0 -0 -0 -0 -0 -0 -0 -0 -0 -0 -0 -0 -0 -0 -0 -0 -0 -0 -0 -0 -0 -0 -0 -0 -0 -0 -0
nan nan nan nan nan nan nan nan nan nan nan nan nan nan nan nan nan nan nan nan nan nan nan nan nan nan nan nan nan nan nan nan nan nan nan nan nan nan nan -0 -0 -0 -0 -0 -0 -0 -0 -0 -0 -0 -0 -0 -0 -0 -0 -0 -0 -0 -0 -0 -0 -0 -0 -0 -0 -0 -0 -0 -0 -0 -0 -0 -0 -0 -0 -0 -0 -0 -0 -0 -0 -0 -0 -0 -0 -0
nan nan nan nan nan nan nan nan nan nan nan nan nan nan nan nan nan nan nan nan nan nan nan nan nan nan nan nan nan nan nan nan -0 -0 -0 -1 -0 -0 -3 -0 -0 -0 -0 -0 -0 -0 -0 -0 -0 -0 -0 -0 -0 -0 -0 -0 -0 -0 -0 -0 -0 -0 -0 -0 -0 -0 -0 -0 -0 -0 -0 -0 -0 -0 -0 -0 -0 -0 -0 -0 -0 -0 -0 -0 -0 -0
nan nan nan nan nan nan nan nan nan nan nan nan nan nan nan nan nan nan nan nan nan nan nan nan nan nan nan nan nan nan nan nan nan nan nan nan -0 -0 -0 -0 -0 -0 -0 -0 -0 -0 -0 -0 -0 -0 -0 -0 -0 -0 -0 -0 -0 -0 -0 -0 -0 -0 -0 -0 -0 -0 -0 -0 -0 -0 -0 -0 -0 -0 -0 -0 -0 -0 -0 -0 -0 -0 -0 -0 -0 -0
nan nan nan nan nan nan nan nan nan nan nan nan nan nan nan nan nan nan nan nan nan nan nan nan nan nan nan nan nan nan nan nan nan nan nan nan nan nan nan nan nan nan nan -0 -0 -0 -0 -0 -0 -0 -0 -0 -0 -0 -0 -0 -0 -0 -0 -0 -0 -0 -0 -0 -0 -0 -0 -0 -0 -0 -0 -0 -0 -0 -0 -0 -0 -0 -0 -0 -0 -0 -0 -0 -0 -0
nan nan nan nan nan nan nan nan nan nan nan nan nan nan nan nan nan nan nan nan nan nan nan nan nan nan nan nan nan nan nan nan nan nan nan nan nan nan nan nan nan nan nan nan nan nan nan nan nan -0 -0 -0 -0 -0 -0 -0 -0 -0 -0 -0 -0 -0 -0 -0 -0 -0 -0 -0 -0 -0 -0 -0 -0 -0 -0 -0 -0 -0 -0 -0 -0 -0 -0 -0 -0 -0
nan nan nan nan nan nan nan nan nan nan nan nan nan nan nan nan nan nan nan nan nan nan nan nan nan nan nan nan nan nan nan nan nan nan nan nan nan nan nan nan nan nan nan nan nan nan nan nan nan nan nan nan nan nan nan -22 -22 -11 -5 -0 -0 -0 -0 -0 -0 -0 -0 -0 -0 -0 -0 -0 -0 -0 -0 -0 -0 -0 -0 -0 -0 -0 -0 -0 -0 -0
nan nan nan nan nan nan nan nan nan nan nan nan nan nan nan nan nan nan nan nan nan nan nan nan nan nan nan nan nan nan nan nan nan nan nan nan nan nan nan nan nan nan nan nan nan nan nan nan nan nan nan nan nan nan nan nan nan nan -5 -0 -0 -0 -0 -0 -0 -0 -0 -0 -0 -0 -0 -0 -0 -0 -0 -0 -0 -0 -0 -0 -0 -0 -0 -0 -0 -0
nan nan nan nan nan nan nan nan nan nan nan nan nan nan nan nan nan nan nan nan nan nan nan nan nan nan nan nan nan nan nan nan nan nan nan nan nan nan nan nan nan nan nan nan nan nan nan nan nan nan nan nan nan nan nan nan nan nan -0 -0 -0 -0 -0 -0 -0 -0 -0 -0 -0 -0 -0 -0 -0 -0 -0 -0 -0 -0 -0 -0 -0 -0 -0 -0 -0 -0
nan nan nan nan nan nan nan nan nan nan nan nan nan nan nan nan nan nan nan nan nan nan nan nan nan nan nan nan nan nan nan nan nan nan nan nan nan nan nan nan nan nan nan nan nan nan nan nan nan nan nan nan nan nan nan nan nan -0 -0 -0 -0 -0 -0 -0 -0 -0 -0 -0 -0 -0 -0 -0 -0 -0 -0 -0 -0 -0 -0 -0 -0 -0 -0 -0 -0 -0
nan nan nan nan nan nan nan nan nan nan nan nan nan nan nan nan nan nan nan nan nan nan nan nan nan nan nan nan nan nan nan nan nan nan nan nan nan nan nan nan nan nan nan nan nan nan nan nan nan nan nan nan nan nan nan nan nan -0 -0 -0 -0 -0 -0 -0 -0 -0 -0 -0 -0 -0 -0 -0 -0 -0 -0 -0 -0 -0 -0 -0 -0 -0 -0 -0 -0 -0
nan nan nan nan nan nan nan nan nan nan nan nan nan nan nan nan nan nan nan nan nan nan nan nan nan nan nan nan nan nan nan nan nan nan nan nan nan nan nan nan nan nan nan nan nan nan nan nan nan nan nan nan nan nan nan -0 -0 -0 -0 -0 -0 -0 -0 -0 -0 -0 -0 -0 -0 -0 -0 -0 -0 -0 -0 -0 -0 -0 -0 -0 -0 -0 -0 -0 -0 -0
nan nan nan nan nan nan nan nan nan nan nan nan nan nan nan nan nan nan nan nan nan nan nan nan nan nan nan nan nan nan nan nan nan nan nan nan nan nan nan nan nan nan nan nan nan nan nan nan nan nan nan nan nan nan -0 -0 -0 -0 -0 -0 -0 -0 -0 -0 -0 -0 -0 -0 -0 -0 -0 -0 -0 -0 -0 -0 -0 -0 -0 -0 -0 -0 -0 -0 -0 -0
-6 nan nan nan nan nan nan nan nan nan nan nan nan nan nan nan nan nan nan nan nan nan nan nan nan nan nan nan nan nan nan nan nan nan nan nan nan nan nan nan nan nan nan nan nan nan nan nan nan nan nan nan nan nan -0 -0 -0 -0 -0 -0 -0 -0 -0 -0 -0 -0 -0 -0 -0 -0 -0 -0 -0 -0 -0 -0 -0 -0 -0 -0 -0 -0 -0 -0 -0 -0
-3 nan nan nan nan nan nan nan nan nan nan nan nan nan nan nan nan nan nan nan nan nan nan nan nan nan nan nan nan nan nan nan nan nan nan nan nan nan nan nan nan nan nan nan nan nan nan nan nan nan nan nan nan nan -0 -0 -0 -0 -0 -0 -0 -0 -0 -0 -0 -0 -0 -0 -0 -0 -0 -0 -0 -0 -0 -0 -0 -0 -0 -0 -0 -0 -0 -0 -0 -0
nan nan nan nan nan nan nan nan nan nan nan nan nan nan nan nan nan nan nan nan nan nan nan nan nan nan nan nan nan nan nan nan nan nan nan nan nan nan nan nan nan nan nan nan nan nan nan nan nan nan nan nan nan nan -0 -0 -0 -0 -0 -0 -0 -0 -0 -0 -0 -0 -0 -0 -0 -0 -0 -0 -0 -0 -0 -0 -0 -0 -0 -0 -0 -0 -0 -0 -0 -0
nan nan nan nan nan nan nan nan nan nan nan nan nan nan nan nan nan nan nan nan nan nan nan nan nan nan nan nan nan nan nan nan nan nan nan nan nan nan nan nan nan nan nan nan nan nan nan nan nan nan nan nan nan nan -0 -0 -0 -0 -0 -0 -0 -0 -0 -0 -0 -0 -0 -0 -0 -0 -0 -0 -0 -0 -0 -0 -0 -0 -0 -0 -0 -0 -0 -0 -0 -0
nan nan nan nan nan nan nan nan nan nan nan nan nan nan nan nan nan nan nan nan nan nan nan nan nan nan nan nan nan nan nan nan nan nan nan nan nan nan nan nan nan nan nan nan nan nan nan nan nan nan nan nan nan nan nan -0 -0 -0 -0 -0 -0 -0 -0 -0 -0 -0 -0 -0 -0 -0 -0 -0 -0 -0 -0 -0 -0 -0 -0 -0 -0 -0 -0 -0 -0 -0
nan nan nan nan nan -2 -0 -0 -0 -0 -3 nan nan nan nan nan nan nan nan nan nan nan nan nan nan nan nan nan nan nan nan nan nan nan nan nan nan nan nan nan nan nan nan nan nan nan nan nan nan nan nan nan nan nan nan -0 -0 -0 -0 -0 -0 -0 -0 -0 -0 -0 -0 -0 -0 -0 -0 -0 -0 -0 -0 -0 -0 -0 -0 -0 -0 -0 -0 -0 -0 -0
-0 -0 -0 -0 -0 -0 -0 -0 -0 -0 -0 -0 -3 -3 nan nan nan nan nan nan nan nan nan nan nan nan nan nan nan nan nan nan nan nan nan nan nan nan nan nan nan nan nan nan nan nan nan nan nan nan nan nan nan nan nan nan nan -0 -0 -0 -0 -0 -0 -0 -0 -0 -0 -0 -0 -0 -0 -0 -0 -0 -0 -0 -0 -0 -0 -0 -0 -0 -0 -0 -0 -0
-0 -0 -0 -0 -0 -0 -0 -0 -0 -0 -0 -0 -0 -0 -0 -1 nan nan nan nan nan nan nan nan nan nan nan nan nan nan nan nan nan nan nan nan nan nan nan nan nan nan nan nan nan nan nan nan nan nan nan nan nan nan nan nan nan nan -0 -0 -0 -0 -0 -0 -0 -0 -0 -0 -0 -0 -0 -0 -0 -0 -0 -0 -0 -0 -0 -0 -0 -0 -0 -0 -0 -1
-0 -0 -0 -0 -0 -0 -0 -0 -0 -0 -0 -0 -0 -0 -0 -2 nan nan nan nan nan nan nan nan nan nan nan nan nan nan nan nan nan nan nan nan nan nan nan nan nan nan nan nan nan nan nan nan nan nan nan nan nan nan nan nan nan nan nan -0 -0 -0 -0 -0 -0 -0 -0 -0 -0 -0 -0 -0 -0 -0 -0 -0 -0 -0 -0 -0 -0 -0 -0 -2 -2 -1
-6 -0 -0 -0 -0 -0 -0 -0 -0 -0 -0 -0 -0 -0 -2 -7 nan nan nan nan nan nan nan nan nan nan nan nan nan nan nan nan nan nan nan nan nan nan nan nan nan nan nan nan nan nan nan nan nan nan nan nan nan nan nan nan nan nan nan nan nan nan nan -0 -0 -0 -0 -0 -0 -0 -0 -0 -0 -0 -0 -0 -0 -0 -0 -0 -0 -0 -2 -2 -2 -1
nan nan nan nan nan -4 -4 nan -5 -5 -0 -0 -0 -0 -2 nan nan nan nan nan nan nan nan nan nan nan nan nan nan nan nan nan nan nan nan nan nan nan nan nan nan nan nan nan nan nan nan nan nan nan nan nan nan nan nan nan nan nan nan nan nan nan nan nan nan -2 -0 -0 -0 -0 -0 -0 -0 -0 -0 -0 -0 -0 -0 -0 -0 -0 -2 -1 -1 -1
nan nan nan nan nan nan nan nan nan nan nan nan -17 -17 -8 -11 -13 -13 -11 -9 -9 -7 -7 -8 -8 -13 nan nan nan nan nan nan nan nan nan nan nan nan nan nan nan nan nan nan nan nan nan nan nan nan nan nan nan nan nan nan nan nan nan nan nan nan nan nan nan nan nan nan -0 -0 -0 -0 -0 -0 -0 -0 -0 -0 -0 -0 -0 -0 -0 -1 -1 -1
nan nan nan -2 -2 -3 -4 nan nan nan nan nan nan nan nan nan -7 -7 -9 -13 -13 -8 -7 -4 -4 -8 nan nan nan nan nan nan nan nan nan nan nan nan nan nan nan nan nan nan nan nan nan nan nan nan nan nan nan nan nan nan nan nan nan nan nan nan nan nan nan nan nan nan nan nan -0 -0 -0 -0 -0 -0 -0 -0 -0 -0 -0 -0 -0 -1 -1 -1
-4 nan nan nan nan nan nan nan nan nan nan nan nan nan -17 -26 -19 -19 -13 -27 -27 -24 -9 -5 -5 -8 nan nan nan nan nan nan nan nan nan nan nan nan nan nan nan nan nan nan nan nan nan nan nan nan nan nan nan nan nan nan nan nan nan nan nan nan nan nan nan nan nan nan nan nan nan nan -0 -0 -0 -0 -0 -0 -0 -0 -0 -0 -0 -0 -0 -1
-0 -0 -1 -1 -1 -0 -0 -1 nan nan -3 nan -14 -14 -22 -31 nan nan nan nan nan nan -19 -11 -11 -11 nan nan nan nan nan nan nan nan nan nan nan nan nan nan nan nan nan nan nan nan nan nan nan nan nan nan nan nan nan nan nan nan nan nan nan nan nan nan nan nan nan nan nan nan nan nan nan nan -2 -0 -0 -0 -0 -0 -0 -0 -0 -0 -0 -0
-0 -0 -0 -0 -0 -0 -1 -2 -4 -4 nan nan nan nan nan nan nan nan nan nan nan -20 -10 -10 -10 -12 -14 -15 -12 -12 nan nan nan nan nan nan nan nan nan nan nan nan nan nan nan nan nan nan nan nan nan nan nan nan nan nan nan nan nan nan nan nan nan nan nan nan nan nan nan nan nan nan nan nan nan -0 -0 -0 -0 -0 -0 -0 -0 -0 -0 -0
-2 -2 -3 -7 -7 nan nan nan nan nan nan nan nan nan nan nan nan nan nan nan nan -20 -8 -4 -4 -6 -8 -17 nan nan nan nan nan nan nan nan nan nan nan nan nan nan nan nan nan nan nan nan nan nan nan nan nan nan nan nan nan nan nan nan nan nan nan nan nan nan nan nan nan nan nan nan nan nan nan -0 -0 -0 -0 -0 -0 -0 -0 -0 -0 -0
nan nan nan nan nan nan nan nan nan nan nan nan nan nan nan nan nan nan nan nan nan nan nan -23 -23 -5 -21 -11 nan nan nan nan nan nan nan nan nan nan nan nan nan nan nan nan nan nan nan nan nan nan nan nan nan nan nan nan nan nan nan nan nan nan nan nan nan nan nan nan nan nan nan nan nan nan nan -11 -2 -2 -0 -0 -0 -0 -0 -0 -0 -0
nan nan nan nan nan nan nan nan -15 -15 -14 -9 -9 -9 -8 -4 -4 -4 nan nan nan nan nan -11 -11 -4 nan nan nan nan nan nan nan nan nan nan nan nan nan nan nan nan nan nan nan nan nan nan nan nan nan nan nan nan nan nan nan nan nan nan nan nan nan nan nan nan nan nan nan nan nan nan nan nan nan nan -2 -2 -0 -0 -0 -0 -0 -0 -0 -0
nan nan nan nan nan nan nan -11 -9 -9 -7 -3 -3 -3 -3 -3 nan nan nan nan nan nan nan nan nan nan -4 -2 -2 -2 nan nan nan nan nan nan nan nan nan nan nan nan nan nan nan nan nan nan nan nan nan nan nan nan nan nan nan nan nan nan nan nan nan nan nan nan nan nan nan nan nan nan nan nan nan nan -13 -13 -1 -1 -1 -1 -0 -0 -0 -0
nan nan nan nan nan nan nan nan nan nan nan nan nan nan nan nan nan nan nan nan nan nan nan nan nan nan nan -4 -5 -5 -5 nan nan nan nan nan nan nan nan nan nan nan nan nan nan nan nan nan nan nan nan nan nan nan nan nan nan nan nan nan nan nan nan nan nan nan nan nan nan nan nan nan nan nan nan nan nan nan -14 -6 -6 -7 -0 -0 -0 -0
nan nan nan nan nan nan nan nan nan nan nan nan nan nan nan nan -5 -5 -6 nan nan nan nan nan nan nan nan -6 -7 -7 nan nan nan nan nan nan nan nan nan nan nan nan nan nan nan nan nan nan nan nan nan nan nan nan nan nan nan nan nan nan nan nan nan nan nan nan nan nan nan nan nan nan nan nan nan nan nan nan nan -21 -21 -3 -0 -0 -0 -0
nan nan nan nan nan nan nan nan nan nan nan nan nan nan nan nan -5 -5 -2 -2 -2 -5 -9 -10 -10 -7 nan nan nan nan nan nan nan nan nan nan nan nan nan nan nan nan nan nan nan nan nan nan nan nan nan nan nan nan nan nan nan nan nan nan nan nan nan nan nan nan nan nan nan nan nan nan nan nan nan nan nan nan nan -9 -9 -1 -0 -0 -0 -0
nan nan nan nan nan nan nan nan nan nan nan -5 -7 -7 nan nan -7 -7 -3 -3 -3 -3 -6 nan nan nan nan nan nan nan nan nan nan nan nan nan nan nan nan nan nan nan nan nan nan nan nan nan nan nan nan nan nan nan nan nan nan nan nan nan nan nan nan nan nan nan nan nan nan nan nan nan nan nan nan nan nan nan nan nan nan nan -5 nan nan -0
nan nan nan nan nan nan nan nan nan nan nan -7 -14 -14 nan nan -8 -8 -5 -2 -2 -2 -5 nan nan nan nan nan nan nan nan nan nan nan nan -0 -0 -0 nan nan nan nan nan nan nan nan nan nan nan nan nan nan nan nan nan nan nan nan nan nan nan nan nan nan nan nan nan nan nan nan nan nan nan nan nan nan nan nan nan nan nan nan nan nan nan nan
nan nan nan nan nan nan -8 -11 -19 -19 -20 nan nan nan nan nan nan nan -6 -2 -2 -2 -5 -8 -8 -17 nan nan nan nan nan nan nan nan nan nan nan nan nan nan nan nan nan nan nan nan nan nan nan nan nan nan nan nan nan nan nan nan nan nan nan nan nan nan nan nan nan nan nan nan nan nan nan nan nan nan nan nan nan nan nan nan nan nan nan nan
-26 -24 -21 -19 -19 -12 -10 -9 -13 -13 -13 -17 nan nan nan nan nan nan nan -5 -5 -3 -3 -5 -5 -9 -21 -29 nan nan nan nan nan nan nan nan nan nan nan nan nan nan nan nan nan nan nan nan nan nan nan nan nan nan nan nan nan nan nan nan nan nan nan nan nan nan nan nan nan nan nan nan nan nan nan nan nan nan nan nan nan nan nan nan nan nan
-7 -6 -8 -8 -8 -8 -8 -10 -11 -11 -10 nan nan nan nan nan nan nan nan nan nan -4 -1 -6 -6 -12 nan nan nan nan nan nan nan nan nan nan nan nan nan nan nan nan -0 nan nan nan nan nan nan nan nan nan nan nan nan nan nan nan nan nan nan nan nan nan nan nan nan nan nan nan nan nan nan nan nan nan nan nan nan nan nan nan nan nan nan nan
-5 -4 -4 -5 -5 -5 -7 -15 -14 -14 -12 nan nan nan nan nan -1 -1 nan nan nan nan nan nan nan nan nan nan nan nan nan nan nan nan nan nan nan nan nan nan nan nan nan nan nan nan nan nan nan nan nan nan nan nan nan nan nan nan nan nan nan nan nan nan nan nan nan nan nan nan nan nan nan nan nan nan nan nan nan nan nan nan nan nan nan nan
-5 -6 -5 -5 -5 -6 -8 -15 -14 -14 nan nan nan nan nan nan nan nan -21 nan nan -19 -18 -10 -10 -4 -3 -6 -14 -14 nan nan nan nan nan nan nan nan nan nan nan nan nan nan nan nan nan nan nan nan nan nan nan nan nan nan nan nan nan nan nan nan nan nan nan nan nan nan nan nan nan nan nan nan nan nan nan nan nan nan nan nan nan nan nan nan
-3 -6 -7 -8 -8 -4 -12 nan nan nan nan nan nan nan nan nan -17 -17 -11 -2 -2 -2 -7 -10 -10 -4 -2 -2 -3 -3 -4 -12 nan nan nan nan nan nan nan nan nan nan nan nan nan nan nan nan nan nan -0 -0 -1 -1 nan nan nan nan nan nan nan nan nan nan nan nan nan nan nan nan nan nan nan nan nan nan nan nan nan nan nan nan nan nan nan nan
Wind_Speed
8 7 7 7 6 5 6 6 6 6 6 5 5 5 5 6 6 6 8 7 7 6 6 6 6 7 8 12 15 17 19 21 22 23 24 25 25 26 26 27 27 27 27 26 26 26 26 25 25 25 25 25 25 25 25 25 24 24 23 23 23 24 24 25 25 26 26 26 27 27 27 27 27 27 28 28 28 29 29 29 29 30 31 31 32 32
8 7 6 6 6 6 6 6 6 6 7 6 6 6 5 6 5 6 6 7 7 7 7 8 8 8 9 11 14 18 20 22 23 24 25 25 26 26 26 27 27 27 27 26 26 26 26 25 25 25 25 25 25 25 25 25 24 24 24 23 23 23 23 24 25 25 26 27 27 27 27 27 28 28 28 29 29 29 29 29 29 29 29 30 30 30
9 8 7 6 6 7 7 7 7 7 7 8 7 7 7 7 7 6 6 7 7 8 8 8 9 9 10 11 14 18 20 23 24 25 25 26 26 26 27 27 27 27 27 27 27 26 26 26 26 26 26 26 26 25 25 25 25 24 24 24 23 23 23 23 24 25 25 26 27 27 27 27 28 28 28 28 29 29 29 29 29 29 29 29 29 29
10 9 8 6 6 7 8 8 8 8 8 8 8 8 8 8 7 7 7 7 7 8 8 9 9 9 9 10 13 16 20 23 24 25 26 26 26 27 27 27 27 27 27 27 27 27 27 26 26 26 26 26 26 26 26 25 25 24 24 24 24 23 23 23 24 24 25 25 26 26 27 27 27 27 28 28 28 29 29 29 30 30 29 29 29 29
10 9 8 7 7 8 8 8 8 8 7 7 8 8 8 7 7 7 7 7 8 8 8 9 9 9 9 9 11 15 20 22 24 25 26 26 26 27 27 27 27 27 27 27 27 27 27 27 27 27 27 27 26 26 26 25 25 24 24 24 24 24 24 24 24 24 24 25 26 26 26 27 27 27 27 27 28 28 29 29 30 30 30 29 29 29
10 9 8 7 7 7 7 7 7 7 7 7 7 7 7 6 6 6 7 7 7 8 7 7 8 9 9 9 12 16 19 22 24 25 25 26 26 27 27 27 27 27 27 27 27 27 27 27 27 27 27 27 27 26 26 25 25 24 24 23 23 24 24 24 24 24 24 25 25 26 26 26 27 27 27 27 27 28 28 29 29 30 30 29 29 29
9 9 8 8 7 7 6 7 7 7 7 7 7 7 7 6 6 6 7 7 7 7 7 7 8 8 9 10 13 15 18 20 22 23 24 25 26 26 26 27 27 27 27 27 27 27 27 27 27 27 27 27 26 26 26 25 25 24 23 23 23 23 24 24 24 24 25 25 25 26 26 26 26 26 27 27 27 27 28 28 29 29 29 29 29 29
10 9 9 8 8 7 7 7 7 7 7 7 7 6 6 5 6 6 7 7 7 7 7 7 7 8 9 10 11 13 13 14 15 16 18 20 21 22 23 24 25 26 26 26 26 26 26 26 26 26 26 26 26 26 25 25 24 24 23 23 23 23 24 24 24 24 25 25 25 26 26 26 26 27 27 26 26 27 27 28 28 28 29 29 29 29
10 10 9 9 9 8 8 7 7 7 7 7 7 7 7 7 7 7 7 7 7 6 6 7 7 8 8 9 9 10 11 11 11 11 12 12 14 16 18 20 22 23 24 25 25 25 26 26 26 26 26 25 25 25 24 24 23 23 23 23 23 23 24 24 24 24 25 25 25 26 26 27 27 27 27 26 26 26 27 27 27 27 28 28 29 29
11 10 10 9 9 8 8 8 7 7 7 7 7 7 7 8 8 8 8 8 7 6 6 6 7 7 7 7 7 7 9 11 13 14 15 15 15 16 17 18 18 20 23 23 24 25 25 25 25 25 25 25 24 24 24 23 23 22 22 22 23 23 23 23 24 24 24 25 25 26 26 27 27 27 27 26 26 26 27 27 27 27 27 28 28 29
10 10 9 8 8 7 7 7 7 6 5 6 6 7 7 7 8 8 9 9 8 6 6 7 7 7 7 6 6 6 7 8 10 12 15 17 18 19 19 19 19 20 22 22 23 24 24 24 24 24 24 24 24 23 22 22 22 22 22 22 22 22 22 23 23 23 24 24 25 25 26 26 27 27 27 26 26 26 27 26 26 26 26 27 27 28
8 8 7 7 7 6 6 6 5 5 4 5 5 6 7 7 7 7 9 9 8 8 7 7 6 6 7 6 6 6 5 6 6 7 8 10 12 13 14 14 15 17 18 19 20 21 22 23 23 23 22 22 22 22 21 21 21 21 21 21 21 22 22 22 22 23 23 23 24 24 25 25 26 26 26 26 26 26 26 26 26 26 26 26 27 27
8 6 6 6 6 5 5 5 4 4 5 5 6 7 6 6 5 6 7 8 8 8 8 7 7 6 7 6 6 5 5 5 5 5 5 5 6 7 7 7 8 9 10 11 11 13 17 19 20 20 20 20 20 20 21 20 20 20 21 21 21 21 22 22 22 22 23 23 23 24 24 24 25 25 25 25 26 26 26 26 26 26 25 26 26 26
7 6 6 6 6 5 4 5 5 5 6 6 6 6 6 5 5 5 6 7 7 7 7 8 8 7 6 6 6 5 5 5 4 4 5 5 5 5 5 5 6 6 6 6 7 8 12 13 13 14 16 17 18 18 18 19 20 20 20 21 21 21 22 22 22 22 22 22 23 23 23 23 24 24 24 24 25 25 26 26 26 25 25 25 25 25
7 7 7 7 6 5 4 5 6 6 7 6 6 6 6 5 5 5 5 6 6 6 6 7 8 7 6 6 5 5 5 5 5 5 6 5 5 5 5 5 5 5 5 6 7 9 10 10 8 8 10 12 13 14 16 17 19 20 20 21 21 22 22 22 22 22 22 22 22 22 23 23 23 23 23 23 24 24 25 25 25 25 25 24 24 24
6 6 7 6 6 5 6 5 6 6 6 5 5 5 5 6 5 5 6 7 6 5 5 6 6 6 6 5 5 5 5 5 5 6 6 6 5 5 5 4 5 5 5 6 6 7 7 7 7 7 8 11 14 17 19 19 20 20 21 21 22 22 22 22 22 22 22 22 22 22 22 22 22 22 22 22 23 23 24 24 25 25 24 24 23 23
6 6 6 6 6 6 6 6 5 5 5 5 5 5 5 6 6 5 5 5 5 4 4 5 5 5 4 4 4 5 5 5 5 5 5 5 5 4 4 4 5 5 5 6 6 6 6 6 6 6 7 11 15 18 19 20 20 21 21 22 22 22 22 22 22 22 22 22 22 22 22 22 22 22 22 22 22 22 22 23 24 24 24 23 22 22
5 5 6 6 6 6 5 5 5 5 5 5 5 5 5 6 6 5 5 5 5 5 5 4 4 4 4 4 3 3 5 5 4 4 4 5 4 4 3 4 4 5 6 6 6 6 6 6 6 7 8 14 17 19 20 21 21 21 22 22 22 22 22 22 22 22 22 22 22 22 22 22 22 21 21 21 21 21 21 22 23 23 24 23 22 21
5 5 5 6 6 5 5 5 5 4 4 4 4 4 5 5 5 5 6 6 6 6 6 6 5 5 5 5 4 2 3 4 3 3 4 4 4 3 3 3 4 5 6 7 7 7 6 6 8 10 13 17 19 20 21 21 21 22 22 22 22 22 22 22 22 22 22 22 22 22 22 22 21 21 21 20 20 20 20 21 22 22 23 22 22 21
5 5 5 5 5 5 5 5 5 5 5 5 5 5 5 5 5 6 6 5 6 6 6 6 6 6 5 6 5 3 2 3 3 3 4 4 4 3 2 3 4 5 6 7 7 6 5 6 7 10 14 17 19 20 21 21 21 22 22 22 22 22 22 22 22 22 22 22 22 22 22 21 21 21 20 20 20 20 20 20 21 22 22 22 21 20
8 7 6 4 4 4 5 5 5 6 6 5 5 5 5 5 5 6 5 5 5 6 5 6 7 7 5 6 5 4 3 3 3 3 3 4 4 3 3 3 4 5 7 7 7 6 5 6 6 7 11 15 18 20 21 21 21 21 21 21 21 21 21 21 22 22 21 21 21 21 21 21 21 21 20 20 20 19 20 20 21 21 22 22 21 19
8 8 7 6 5 5 6 6 7 7 7 6 5 5 4 5 6 6 6 6 6 6 6 7 7 7 6 6 6 4 4 4 4 3 3 4 4 4 3 3 4 5 7 7 6 5 5 5 6 7 11 15 18 19 20 21 21 21 21 21 21 21 21 21 21 21 21 21 21 21 21 21 21 21 20 20 20 19 19 20 20 21 22 22 20 19
10 10 10 9 8 8 8 8 8 8 8 7 7 6 5 5 6 6 6 6 6 6 7 7 7 6 6 6 6 5 4 4 4 4 3 4 5 4 3 3 4 5 7 6 6 5 5 5 6 8 10 15 18 19 20 20 21 21 21 21 21 21 21 21 21 21 21 21 21 21 21 21 21 20 20 20 20 19 19 19 20 20 21 21 20 19
11 11 11 10 9 8 8 8 8 7 7 7 7 8 7 7 8 8 6 7 6 6 6 6 6 6 7 7 6 5 5 4 4 4 4 5 5 5 3 3 4 6 7 6 5 4 5 5 6 7 7 13 16 18 19 20 20 20 21 21 21 21 21 21 21 21 21 21 21 20 20 20 20 20 20 20 20 19 19 19 19 20 20 21 20 19
10 10 10 10 10 11 10 10 10 9 8 8 8 8 9 10 10 9 8 7 6 6 5 5 6 6 6 6 6 5 5 5 5 4 4 4 5 5 4 4 4 6 6 5 4 4 4 5 6 6 5 9 13 16 18 19 20 20 20 20 20 21 21 21 21 21 21 20 20 20 20 20 20 20 19 19 19 19 19 19 19 19 19 20 20 19
15 14 14 15 17 19 20 19 19 18 17 13 10 9 8 8 8 7 6 6 5 5 5 6 6 7 6 5 5 5 4 4 5 5 5 4 4 5 4 4 4 5 5 4 4 4 4 5 5 5 4 6 10 13 16 18 19 19 20 20 20 20 20 21 21 20 20 20 20 20 20 19 19 19 19 19 19 19 19 19 19 19 19 19 19 18
25 25 25 25 26 26 26 26 25 25 25 22 18 14 11 8 6 5 4 4 4 4 5 6 6 7 6 5 5 5 4 4 5 6 5 4 5 5 4 4 4 4 5 4 4 4 5 5 5 5 4 4 6 9 14 16 17 19 19 19 20 20 20 20 20 20 20 20 20 19 19 19 19 18 18 18 18 18 18 18 18 18 18 17 16 14
29 29 30 30 29 29 28 27 27 27 27 27 26 23 17 10 7 5 4 3 3 4 4 5 6 6 6 5 5 5 4 4 5 5 5 4 4 5 4 3 3 4 4 4 4 4 5 6 5 5 4 4 5 6 10 14 16 17 18 18 19 19 20 20 20 20 20 19 19 19 19 19 18 18 18 18 18 18 18 18 18 17 16 13 10 8
25 27 28 28 28 27 26 25 24 25 26 26 26 24 17 11 8 6 5 3 3 3 4 5 6 6 6 6 5 5 5 5 5 5 5 4 4 5 4 3 3 4 3 3 3 3 4 5 4 4 4 5 5 5 7 10 12 13 14 16 17 18 18 19 19 19 19 19 19 19 18 18 18 18 18 17 17 17 18 18 17 15 11 9 7 6
16 18 19 20 20 20 19 17 17 19 21 23 23 21 15 10 7 6 5 4 4 4 5 6 6 6 6 6 5 5 5 5 5 5 6 5 4 4 3 4 4 4 3 2 2 3 4 4 4 4 4 6 6 5 5 6 6 7 8 11 12 14 16 17 18 18 18 18 18 18 18 18 17 17 17 17 17 17 17 18 16 12 7 6 5 5
10 11 11 11 11 11 11 11 11 12 14 16 16 15 12 9 7 6 5 5 5 5 5 6 6 6 6 5 5 5 4 4 4 5 6 5 4 4 3 4 4 4 4 3 2 3 3 3 3 3 3 4 5 5 5 5 4 4 4 5 7 9 13 15 16 16 17 17 17 17 17 17 17 17 17 17 17 17 17 18 16 11 6 5 5 5
9 8 8 8 8 8 8 8 8 8 8 9 9 8 8 7 6 6 5 5 5 5 6 7 7 7 6 6 6 5 4 3 4 5 6 4 4 4 3 4 4 4 4 4 4 3 3 3 2 1 1 2 3 3 4 4 4 4 4 4 4 6 10 12 13 13 13 14 15 15 15 15 16 16 16 16 16 17 17 17 15 12 7 5 5 5
8 7 7 7 7 7 6 6 6 6 6 5 5 5 5 6 6 6 5 5 5 5 6 7 8 8 7 7 7 7 5 4 4 5 6 4 3 3 3 4 4 4 3 4 4 4 4 3 2 2 1 1 2 2 3 4 4 4 4 4 4 5 8 8 8 8 9 10 10 11 12 13 14 14 15 16 16 16 16 17 16 13 9 6 5 5
6 6 6 6 5 5 5 5 4 4 4 4 4 4 4 4 5 6 6 6 6 6 7 7 8 8 8 7 7 7 6 5 5 6 6 5 3 3 3 4 4 4 3 4 4 4 4 4 3 2 2 2 2 2 2 3 4 4 4 4 4 4 5 5 5 5 6 6 6 6 8 9 10 11 12 13 14 15 15 16 16 15 13 8 5 4
5 5 5 4 4 4 4 4 4 4 4 4 4 4 4 4 5 5 6 6 7 7 7 8 8 8 8 7 6 7 6 6 6 6 6 5 4 3 3 4 4 4 3 3 3 3 3 4 4 4 3 3 2 2 2 3 3 4 4 4 4 4 4 4 4 4 5 5 4 4 4 5 5 7 8 10 12 13 14 15 15 15 14 11 9 6
5 5 5 5 5 5 5 5 5 5 5 4 4 4 5 5 6 6 6 7 7 8 8 8 8 9 8 8 8 8 8 6 5 6 7 6 5 4 3 4 4 4 4 4 4 3 3 3 4 4 5 4 4 3 2 2 2 3 3 4 4 4 4 4 4 4 4 4 4 4 4 4 4 4 6 9 11 13 14 14 14 14 14 13 11 9
5 5 5 4 4 5 5 5 5 5 5 5 5 5 6 6 6 7 7 7 7 7 8 8 8 8 9 9 10 10 9 7 6 6 7 6 5 5 4 4 4 5 5 5 4 4 4 4 4 4 5 5 4 3 2 2 1 2 3 4 4 4 4 4 4 4 4 4 5 4 4 4 4 4 5 9 10 11 12 13 13 13 13 13 12 12
4 5 4 4 4 4 5 5 5 5 5 5 5 6 6 6 7 7 6 6 6 6 6 6 6 7 10 11 11 11 10 9 8 7 8 7 6 6 5 4 4 5 5 5 5 5 5 4 4 4 4 4 5 4 3 2 2 2 3 3 3 3 4 4 4 4 4 5 5 5 5 5 4 4 4 5 6 6 7 7 8 9 10 10 10 12
5 5 5 5 5 4 4 4 4 5 4 5 5 6 6 6 6 6 5 5 5 5 6 6 6 7 8 10 11 12 12 11 10 9 8 7 6 6 5 5 5 5 5 5 5 5 5 5 5 5 4 4 4 3 3 3 2 2 2 1 2 2 3 3 3 4 4 4 5 5 5 4 4 3 3 3 3 4 4 4 5 5 5 5 6 8
5 5 5 6 5 5 4 5 5 5 5 6 6 7 6 6 6 6 5 5 5 5 5 6 6 7 8 9 10 11 11 10 9 8 7 7 6 6 5 5 5 5 5 5 5 5 6 5 5 5 5 4 3 3 3 3 3 2 2 2 2 2 3 3 3 3 3 4 4 4 4 3 3 3 3 3 3 3 3 3 3 4 4 3 3 4
6 6 6 6 5 5 6 5 5 5 5 5 5 5 5 5 5 5 5 5 5 5 5 5 5 6 7 8 8 9 9 9 9 8 6 7 7 7 6 5 5 5 4 5 5 6 6 6 6 6 6 5 4 4 4 3 4 4 4 3 3 3 3 3 3 3 3 3 3 4 4 4 4 4 3 3 3 3 3 3 3 3 3 2 2 2
7 6 6 6 5 5 5 5 6 6 6 5 5 4 4 4 4 5 5 5 5 4 4 4 4 5 6 7 7 7 8 8 8 8 8 8 8 8 7 6 5 5 5 5 5 6 6 7 7 6 6 5 5 5 4 4 4 4 5 4 3 2 2 2 2 2 3 3 3 3 5 4 3 3 2 2 2 2 3 3 4 4 4 2 1 2
6 6 6 6 6 6 6 6 6 5 5 4 4 4 4 4 4 5 6 6 6 5 5 4 4 5 6 6 6 5 5 6 6 7 7 7 8 8 7 7 6 6 5 5 5 5 6 7 7 6 6 5 5 5 5 5 4 4 4 4 3 2 2 2 2 1 2 3 3 3 3 3 3 2 2 2 2 2 2 3 4 5 4 2 1 2
6 6 6 6 6 6 6 5 5 5 4 5 4 4 4 4 4 5 6 6 7 7 6 5 5 5 6 6 5 4 3 4 4 6 7 7 8 8 8 8 7 7 6 5 5 4 4 6 6 6 5 5 5 5 5 5 4 3 3 4 4 4 3 2 2 1 2 2 3 3 3 3 2 1 1 1 1 1 1 2 2 2 2 1 1 2
6 5 6 6 5 5 5 5 5 4 4 4 4 4 4 4 5 5 5 6 7 7 7 6 5 4 5 4 4 4 3 3 3 4 5 7 9 10 9 8 7 7 6 6 5 5 4 4 5 5 4 4 5 6 6 5 4 4 4 4 4 4 4 3 2 2 2 2 3 3 3 2 1 1 1 1 1 1 1 1 1 1 0 1 1 1
5 5 6 5 5 5 7 6 5 5 4 5 5 5 4 5 4 5 6 6 7 7 7 6 5 4 4 4 3 3 3 3 3 3 4 5 6 7 7 7 7 6 6 6 6 5 5 5 4 4 3 4 5 6 6 5 4 4 4 4 4 4 4 3 3 3 3 3 3 3 2 1 1 0 1 1 1 1 1 1 1 1 1 1 1 1
5 6 6 5 5 5 5 5 5 5 5 5 5 5 5 5 5 5 5 6 6 6 6 5 4 4 4 4 4 4 4 4 4 3 3 4 4 5 5 5 6 6 6 5 6 6 6 5 4 4 4 4 4 5 4 4 4 4 4 4 4 3 4 3 3 3 4 4 3 3 2 2 1 1 2 2 1 1 1 1 1 1 1 2 2 1
6 6 6 5 5 5 5 5 4 5 5 6 6 6 6 6 6 6 6 6 6 5 6 5 4 5 6 6 6 5 5 5 5 4 3 3 4 4 4 4 4 4 5 5 6 6 6 6 5 5 5 5 4 4 4 3 4 4 4 4 4 4 4 4 3 3 3 4 4 4 3 3 2 2 2 1 1 1 1 1 1 1 0 1 2 2
6 6 6 6 6 6 6 5 5 5 6 6 6 6 6 7 8 8 7 6 5 4 4 5 6 6 7 7 6 6 6 6 5 4 4 3 3 3 3 3 3 3 3 4 4 5 5 5 6 6 6 5 5 4 3 3 4 4 3 3 4 4 4 4 3 3 3 3 4 4 4 4 4 3 3 2 1 2 1 1 1 1 0 1 2 2
6 6 7 7 7 7 6 6 6 6 7 7 7 7 6 5 5 5 6 5 5 5 4 5 6 6 7 6 6 5 5 4 4 4 4 3 3 3 3 3 3 3 2 3 3 3 3 3 5 6 8 8 7 6 4 4 3 3 3 4 4 4 4 4 3 3 3 3 4 4 4 3 3 3 3 2 2 2 1 1 1 1 1 1 2 2
7 7 7 7 7 6 6 6 6 6 7 7 7 7 5 4 4 3 4 4 4 5 5 5 6 6 7 7 6 6 5 5 4 4 4 3 3 3 3 3 3 3 3 2 2 2 2 2 2 4 7 10 11 10 6 5 4 4 4 4 3 3 4 3 3 3 4 4 4 3 4 3 3 3 3 3 2 2 2 2 2 2 1 1 2 2
Wind_Direction
280 282 283 281 282 281 278 272 272 274 276 271 267 266 267 265 264 264 264 267 270 272 273 272 271 270 272 274 276 277 277 276 275 274 272 272 271 272 272 273 275 276 277 279 280 281 282 283 283 283 284 284 283 283 283 283 282 282 281 281 280 279 279 279 279 279 279 279 279 279 280 280 280 280 281 281 280 280 279 278 276 275 273 270 268 266
278 281 282 280 280 279 280 276 272 271 274 273 271 268 268 267 265 265 265 266 267 268 271 272 273 271 270 272 274 275 275 275 274 273 272 271 271 271 272 273 274 275 276 277 278 279 280 281 281 282 282 282 282 282 282 282 282 282 282 281 280 279 279 278 278 278 277 277 277 277 278 278 278 279 280 281 281 282 282 282 281 280 278 276 273 269
281 282 280 280 279 279 280 279 276 272 271 272 270 268 268 268 267 266 265 266 266 266 266 268 269 270 270 271 272 272 272 272 272 272 271 271 271 271 271 272 273 274 275 276 277 278 279 280 280 280 281 281 281 281 281 281 281 281 281 281 281 280 279 278 277 277 276 276 276 276 276 276 276 277 277 279 280 281 282 283 283 283 282 280 278 274
281 282 282 282 279 276 276 277 276 273 270 271 270 268 266 266 265 265 263 264 265 265 265 265 266 267 268 268 269 269 270 270 270 270 270 270 270 270 271 272 272 273 274 275 276 277 278 279 279 280 280 280 281 281 281 282 281 281 281 282 282 281 281 280 279 277 276 276 275 275 275 275 275 275 275 276 277 278 279 280 281 282 282 282 281 277
279 280 283 283 280 276 273 274 275 274 273 272 270 268 264 263 264 264 264 263 263 264 264 265 264 265 266 266 266 267 267 268 268 269 269 269 269 270 270 271 271 272 272 273 274 276 277 278 279 279 280 281 282 282 282 282 282 282 283 283 283 283 283 282 281 280 278 277 276 275 275 275 275 274 274 274 274 275 276 277 278 279 280 282 282 280
277 277 279 278 276 275 275 273 272 273 274 271 268 265 263 262 263 264 265 264 263 263 264 264 263 263 264 264 265 266 266 267 268 268 268 269 269 269 269 270 270 271 272 273 274 275 276 277 279 280 281 282 283 283 284 284 284 284 284 284 284 285 285 284 283 282 281 280 278 277 276 275 275 274 274 274 273 273 273 274 275 276 278 280 281 281
274 272 273 272 272 271 271 269 268 267 268 269 268 267 265 263 262 262 261 261 261 263 264 264 263 262 262 263 264 265 266 267 268 268 269 269 269 269 269 270 270 271 272 273 274 275 276 277 279 280 281 282 283 284 284 284 285 285 285 285 285 285 285 285 285 285 284 283 281 280 278 277 276 275 274 274 273 273 273 273 273 274 276 278 280 281
271 269 268 269 269 269 267 264 262 262 264 267 269 269 268 265 262 259 257 256 256 258 262 263 262 261 259 260 261 263 264 266 267 268 268 269 269 269 269 270 270 271 272 273 274 274 276 277 278 279 280 281 282 282 283 283 284 284 285 285 286 286 286 287 287 286 286 285 283 282 280 279 277 276 275 274 274 273 273 272 272 272 273 276 278 280
267 268 266 265 265 267 268 265 261 260 261 263 265 267 268 267 265 262 259 257 254 253 255 258 260 259 258 257 258 259 261 261 262 262 263 264 265 266 267 268 269 270 270 271 272 273 274 275 276 277 277 278 279 280 281 282 283 284 285 286 286 287 288 288 288 288 287 286 285 284 282 280 279 278 276 276 275 274 273 272 271 271 271 273 276 278
262 263 265 263 262 263 266 267 265 262 259 261 262 263 264 267 268 269 268 264 260 255 253 254 257 258 259 256 255 256 258 259 259 259 259 260 261 261 263 264 266 267 268 269 270 271 271 272 273 274 275 276 277 279 280 281 283 284 286 287 287 288 288 289 288 288 288 286 285 284 282 281 280 279 277 277 276 275 274 272 271 270 270 271 273 275
259 259 261 263 261 260 259 262 264 263 258 260 261 260 258 259 263 267 269 268 265 262 257 254 254 256 258 258 254 251 251 255 257 259 260 261 262 263 264 264 265 266 267 268 269 270 271 271 272 273 275 276 277 279 280 282 283 284 285 286 287 287 288 288 288 288 287 287 286 284 283 281 280 279 278 277 277 277 275 273 271 270 269 269 271 273
256 257 257 258 259 258 256 258 259 258 254 255 257 257 255 251 252 256 262 265 265 264 262 259 255 253 253 255 255 252 247 248 251 255 258 260 262 263 264 266 267 268 268 269 270 271 271 272 273 273 275 276 277 278 280 281 282 283 284 284 285 286 286 287 287 287 287 287 286 285 284 282 280 279 277 277 277 277 277 275 273 270 268 268 269 270
252 253 255 256 256 255 255 257 257 254 248 247 249 252 254 250 247 248 254 259 261 262 263 263 260 256 252 251 253 254 251 250 249 250 251 253 255 257 259 262 264 266 267 269 270 270 270 271 272 273 274 275 276 277 278 278 279 280 281 282 283 284 285 285 286 286 286 286 286 285 285 283 281 280 278 277 277 277 277 276 274 272 269 268 267 268
251 252 253 254 254 253 252 251 252 253 250 247 248 251 254 255 253 252 254 257 259 259 261 263 263 261 256 252 251 251 252 254 254 252 250 248 246 244 246 253 257 258 260 263 264 264 264 266 269 271 272 272 274 275 275 276 277 278 279 280 281 282 283 284 284 285 285 285 286 286 285 284 283 281 279 278 277 277 277 277 276 274 271 268 267 266
250 251 253 253 253 251 249 247 248 249 250 250 253 256 261 261 258 255 255 258 260 260 260 262 262 261 257 250 246 244 245 249 252 253 253 251 245 239 237 246 252 254 253 255 258 260 260 260 262 264 266 266 267 267 268 272 274 275 276 277 279 280 281 282 283 284 284 285 285 285 286 285 284 282 280 278 277 276 277 277 277 276 274 270 267 265
248 249 251 253 253 252 249 248 249 251 253 254 255 257 258 258 256 253 253 256 259 260 259 261 264 263 258 245 233 227 231 240 245 249 252 254 249 239 227 238 249 254 251 251 253 256 258 256 255 255 257 259 262 264 265 267 270 272 274 275 277 278 280 281 282 283 284 284 285 285 286 286 285 284 283 280 278 277 277 278 278 278 276 273 269 266
248 248 250 252 253 253 252 251 252 253 255 255 254 252 251 252 252 252 252 255 257 258 255 257 261 265 266 250 224 210 210 223 234 243 247 253 252 242 221 229 244 252 252 250 251 252 253 252 252 251 252 256 259 262 264 266 269 271 272 274 276 277 279 280 282 282 283 284 284 285 286 286 286 286 285 283 281 279 278 279 279 279 278 275 273 269
244 245 247 249 251 252 253 253 253 253 254 253 252 251 250 250 250 251 252 252 253 254 254 254 254 258 267 266 242 204 191 208 224 239 244 250 250 243 220 221 236 247 252 251 251 249 248 247 246 247 250 256 258 261 264 266 268 270 272 274 276 277 279 280 281 282 283 284 285 285 286 287 287 287 287 286 285 283 281 280 280 280 279 277 275 272
234 233 237 242 246 249 250 249 249 249 249 249 250 251 252 251 250 249 249 248 248 249 252 254 254 255 259 262 255 222 176 192 211 234 244 249 250 244 218 217 233 245 251 252 251 249 246 246 247 249 252 256 259 261 264 266 268 270 272 274 276 277 279 280 281 282 283 284 285 285 286 286 287 287 287 287 287 285 284 283 283 282 281 277 275 273
249 237 228 231 237 242 243 241 239 239 242 245 248 251 253 252 251 249 247 247 246 246 247 250 253 255 256 261 259 245 177 171 194 226 243 249 251 244 214 213 230 243 250 251 250 248 245 245 249 253 255 257 259 261 264 266 268 270 272 274 276 277 279 280 281 281 282 283 284 285 285 286 286 286 286 286 286 285 285 285 285 285 283 279 275 273
267 259 242 232 232 238 243 239 235 235 239 243 246 249 250 250 249 248 246 246 246 246 245 247 249 251 254 258 258 245 194 174 188 218 240 246 246 238 210 205 220 237 248 251 250 246 243 243 245 249 252 256 259 261 263 266 268 270 272 273 275 276 278 279 280 281 282 283 284 284 285 285 285 286 286 285 284 284 283 284 286 286 286 283 278 274
268 265 259 251 247 249 253 253 250 246 245 243 244 245 246 247 248 248 246 244 243 243 242 244 246 248 252 255 254 245 210 192 198 215 238 248 247 237 207 197 213 234 246 250 250 246 241 242 244 247 250 254 257 260 262 265 267 269 271 272 274 276 277 278 279 280 281 282 283 284 284 285 285 285 285 284 284 283 282 282 284 286 288 286 282 277
262 262 263 259 255 253 256 258 258 256 251 246 243 243 243 243 245 247 246 242 242 241 242 243 246 249 250 251 251 245 226 212 208 215 233 249 251 243 210 199 216 234 244 247 248 246 240 242 244 247 251 254 256 259 261 264 266 268 270 272 274 275 277 278 279 280 281 282 283 284 284 285 285 285 285 284 284 282 280 280 280 282 284 285 283 279
255 257 259 257 255 253 254 256 257 256 252 247 244 243 243 243 244 245 246 244 244 245 246 248 250 251 249 248 247 244 231 218 211 213 228 246 251 249 226 214 226 239 246 245 243 241 242 244 244 245 248 252 255 257 260 263 265 267 270 272 273 275 276 278 279 281 282 283 284 284 285 285 285 285 285 285 284 282 281 279 278 279 281 283 282 280
249 250 251 250 249 248 247 249 250 249 247 245 244 243 244 244 246 248 249 249 249 250 251 251 250 249 249 246 245 241 228 212 204 206 222 243 251 250 238 226 232 242 250 246 238 233 238 246 246 244 243 249 253 256 258 261 264 267 269 271 273 275 277 278 279 281 282 283 284 285 285 286 286 285 285 285 284 283 281 279 277 276 277 279 280 280
250 248 248 247 247 247 248 249 249 249 248 246 244 242 243 243 245 248 250 250 250 250 251 251 251 251 251 248 246 241 227 207 202 204 213 235 250 252 242 229 232 242 252 249 238 230 235 246 248 245 237 243 249 253 256 259 262 265 268 270 273 274 276 278 279 281 282 284 285 286 287 287 287 286 285 285 284 283 281 279 276 275 274 276 277 278
259 257 255 253 252 251 251 252 253 254 254 254 254 255 256 251 248 245 239 237 237 240 246 251 256 258 258 254 250 244 230 214 205 204 205 223 242 250 244 230 231 240 251 252 242 233 236 245 248 245 239 237 241 248 253 257 260 264 267 269 272 274 275 277 279 280 282 284 285 287 288 288 288 287 286 285 284 283 281 279 276 273 271 272 274 276
262 261 260 258 257 257 257 258 260 261 262 263 265 267 270 269 266 259 240 222 216 223 236 246 254 259 260 257 254 248 238 225 212 201 194 209 232 244 243 232 229 235 246 252 248 241 239 245 247 246 243 238 237 242 249 254 258 262 265 268 270 273 275 276 278 280 282 284 286 287 289 290 290 289 288 287 286 284 282 279 276 272 269 267 267 269
263 262 261 261 261 261 263 265 266 267 268 270 271 273 274 274 273 271 263 239 219 219 231 239 246 253 258 259 259 255 245 234 215 196 182 201 226 240 238 231 228 229 235 253 258 254 245 244 244 243 245 243 240 240 245 250 255 260 264 267 269 271 274 276 278 280 281 283 285 287 289 290 291 292 291 290 289 287 284 281 278 273 266 261 258 259
263 263 262 262 262 264 265 266 267 268 268 270 271 272 272 269 267 267 270 262 248 238 240 243 246 250 254 260 261 257 248 234 211 189 177 199 222 236 230 228 226 221 213 236 256 262 254 245 236 232 235 239 240 239 240 243 247 252 258 264 267 269 271 273 275 277 280 282 284 286 288 290 292 293 294 293 292 290 287 284 280 274 259 250 247 248
263 261 260 260 260 261 260 259 259 260 262 264 265 266 265 263 260 260 263 262 256 252 253 253 252 251 250 253 256 256 252 231 202 184 176 199 221 231 220 225 224 218 202 206 227 253 262 255 240 228 226 232 235 237 235 234 236 239 243 253 260 265 267 269 272 275 277 280 282 285 287 289 292 294 295 295 295 293 290 286 282 276 255 242 238 240
261 257 254 254 253 252 251 249 248 248 250 252 253 253 253 254 254 254 254 253 254 256 258 260 258 255 248 245 247 251 257 240 202 183 178 198 220 229 212 220 224 221 207 206 215 233 255 260 260 252 239 233 235 237 233 231 229 230 233 239 248 257 261 264 268 271 275 278 280 283 285 288 291 294 296 297 297 295 292 289 285 277 256 240 232 232
261 254 251 250 250 249 246 243 241 240 241 242 242 243 246 249 250 251 250 249 250 252 255 259 260 258 251 246 246 248 254 249 218 193 183 193 213 225 211 216 221 223 215 214 220 229 244 254 263 270 271 239 232 230 230 228 226 224 224 229 238 249 256 259 262 266 269 274 277 280 283 286 289 292 295 297 298 297 295 292 287 279 263 244 228 223
275 268 263 262 262 261 261 258 256 254 254 253 253 252 252 253 252 252 251 249 248 247 249 253 256 256 253 249 248 249 251 247 230 208 188 192 205 219 209 212 215 217 216 219 223 229 242 246 253 261 267 252 235 223 218 222 223 220 215 219 229 241 249 250 253 258 262 266 270 275 278 282 286 289 293 295 296 296 295 293 288 282 270 253 231 212
312 307 304 303 303 304 305 302 299 295 291 287 281 276 270 264 259 256 253 250 248 247 246 248 249 251 251 252 253 254 254 248 231 212 193 195 202 213 211 213 211 210 213 218 219 224 238 240 239 242 254 259 254 239 221 217 216 216 213 217 223 232 239 241 244 249 256 259 262 264 267 271 276 281 286 290 291 292 292 291 289 285 276 261 243 220
333 332 331 331 329 326 322 318 313 308 303 295 288 282 275 268 263 258 255 253 251 249 248 246 246 247 248 251 253 255 256 251 232 211 199 197 200 206 214 215 210 206 211 217 219 221 229 236 235 235 240 250 256 254 241 223 214 214 219 222 226 231 236 236 236 240 248 254 258 260 260 261 263 268 276 285 288 290 291 292 292 290 285 269 251 231
327 323 322 322 318 314 308 305 302 300 297 293 289 284 279 274 270 266 263 260 258 256 253 250 249 249 251 252 253 254 256 252 235 212 199 197 197 203 214 218 212 206 208 215 219 220 223 231 236 236 237 240 245 249 246 234 221 221 227 225 227 231 239 238 235 234 239 248 253 256 258 258 260 264 271 283 289 292 293 294 295 296 296 282 261 238
314 311 307 305 303 300 298 298 298 298 298 297 296 294 290 284 280 278 277 275 274 273 271 268 266 264 261 261 259 258 258 253 240 218 199 194 195 200 211 219 218 212 210 214 216 217 219 226 232 235 237 237 239 241 239 234 229 231 234 229 226 229 236 238 234 230 232 242 249 254 257 259 260 265 272 282 290 295 294 292 293 297 301 293 271 247
310 307 305 304 302 300 298 297 297 297 298 298 298 296 294 291 289 287 286 284 279 276 272 272 272 271 266 264 262 259 257 251 240 223 202 195 193 197 206 216 220 219 215 215 215 216 217 222 226 231 235 239 240 238 234 228 226 228 236 249 254 249 240 234 230 229 230 236 246 253 259 262 265 267 272 277 284 288 289 289 289 293 301 309 291 264
308 305 303 302 302 300 297 295 295 295 296 296 296 296 296 296 295 293 287 280 274 268 263 263 266 268 268 266 263 259 255 248 238 225 207 198 195 196 202 212 218 219 214 214 215 217 220 224 228 231 235 237 237 234 229 223 218 216 220 240 254 251 240 228 223 224 225 228 236 246 256 262 266 268 268 268 270 274 280 285 289 293 296 306 307 290
303 301 298 298 296 293 290 290 291 293 293 295 296 297 297 298 299 299 296 289 283 277 274 272 272 271 269 265 262 257 251 245 236 226 213 204 200 200 202 210 214 215 212 212 213 216 219 225 228 232 235 238 241 243 239 229 225 226 228 232 235 238 233 222 216 216 222 227 232 237 247 258 265 268 268 265 258 252 256 265 275 283 290 295 299 293
298 297 295 293 291 288 285 285 286 288 289 289 290 291 292 295 298 300 300 297 293 287 281 278 276 275 273 268 262 254 247 239 231 224 216 207 203 202 206 210 212 211 210 211 213 215 217 222 226 229 230 231 237 243 246 238 233 230 233 233 236 243 256 243 228 213 212 226 234 239 243 252 259 264 268 267 260 254 246 248 261 272 281 293 304 302
293 291 290 289 286 284 283 283 284 284 284 284 283 283 284 286 290 292 294 291 289 285 281 276 274 274 276 275 271 262 249 239 232 227 221 211 206 205 209 212 212 210 207 210 214 217 218 221 225 228 228 226 230 237 245 243 240 235 234 231 233 242 264 265 257 227 210 222 228 234 237 242 247 254 262 265 267 262 254 254 263 271 285 309 344 343
289 288 288 287 285 284 282 280 278 277 276 277 277 279 279 280 282 283 286 285 283 282 279 274 270 268 268 270 270 267 256 242 234 231 229 221 214 210 212 214 213 210 205 208 212 215 217 221 225 226 224 224 228 233 239 239 236 232 230 226 223 224 230 231 217 200 208 223 228 229 228 232 237 250 276 282 282 281 268 252 261 278 310 1 23 13
286 287 287 287 287 285 282 277 276 274 273 273 275 277 279 278 279 279 280 281 281 280 278 273 267 259 254 256 258 259 254 238 229 227 230 228 224 221 216 214 212 210 207 210 212 214 215 220 223 222 219 220 225 229 233 235 234 231 229 226 226 227 228 222 201 187 199 217 228 230 225 215 214 249 292 293 294 292 283 247 235 228 45 55 54 42
284 285 285 285 284 282 280 279 278 278 277 276 277 278 279 277 277 276 277 279 280 281 280 274 267 259 256 256 256 257 255 245 234 226 224 228 226 223 217 213 210 208 207 211 214 217 218 220 219 216 212 218 223 227 229 227 228 230 233 230 231 234 239 235 220 204 200 210 220 225 215 175 150 169 257 270 281 292 294 271 217 187 155 121 98 75
284 284 285 285 285 283 282 283 283 283 282 281 280 279 278 278 278 278 277 277 279 281 284 281 278 275 278 278 272 265 260 255 247 236 224 221 221 220 218 214 210 208 207 210 214 217 221 221 217 211 207 214 221 225 224 217 219 225 231 230 231 234 240 238 229 214 202 205 211 211 186 146 147 196 235 253 270 289 299 300 271 202 160 144 129 109
289 290 292 293 293 291 289 287 286 285 284 283 282 281 279 277 277 277 278 276 276 279 282 284 285 286 285 279 271 263 257 254 250 244 232 220 214 212 210 209 208 209 209 212 215 218 220 219 215 211 208 213 219 223 218 209 211 217 225 226 230 234 239 237 231 217 204 206 204 198 178 171 180 197 212 234 263 284 293 305 308 304 169 145 139 129
294 295 296 295 294 292 290 288 286 285 285 285 284 282 279 276 276 276 276 275 272 271 272 277 281 282 280 275 269 263 256 254 251 246 237 222 211 204 201 200 200 202 208 213 217 219 221 220 217 213 211 214 219 225 222 211 208 211 217 222 227 232 237 237 232 219 206 206 203 198 188 187 187 184 180 195 232 261 275 288 295 300 315 138 139 138
293 292 293 292 290 288 288 286 286 285 284 284 283 282 280 276 274 272 272 272 270 269 269 275 279 283 284 284 280 274 264 259 254 250 241 224 206 196 195 193 193 195 201 208 212 215 219 223 221 219 216 215 217 221 226 222 216 214 217 221 224 228 233 235 230 218 206 204 201 198 195 195 187 174 162 178 207 240 265 271 271 265 251 140 132 136
292 290 289 287 286 285 285 285 284 283 282 282 282 283 285 288 287 284 279 277 277 278 280 280 281 282 283 285 284 280 271 263 257 252 243 224 203 192 191 189 189 191 196 202 205 206 207 217 225 226 222 219 217 217 222 223 222 221 223 222 221 222 228 231 227 220 212 205 198 193 191 194 191 181 171 176 191 220 254 254 249 239 214 164 141 140